Time,TemperatureF,DewpointF,PressureIn,WindDirection,WindDirectionDegrees,WindSpeedMPH,WindSpeedGustMPH,Humidity,HourlyPrecipIn,Conditions,Clouds,dailyrainin,SolarRadiationWatts/m^2,SoftwareType,DateUTC
2013-03-24 00:02:00,42.7,34.6,29.98,NE,36,1.0,3.0,73,0.00,,,0.00,0,Wunderground v.1.15,2013-03-23 22:02:00,
2013-03-24 00:12:00,43.0,34.6,29.98,NE,36,2.0,2.0,72,0.00,,,0.00,0,Wunderground v.1.15,2013-03-23 22:12:00,
2013-03-24 00:22:00,43.3,34.9,29.98,NE,36,1.0,1.0,72,0.00,,,0.00,0,Wunderground v.1.15,2013-03-23 22:22:00,
2013-03-24 00:32:00,43.4,35.0,29.99,NE,40,1.0,2.0,72,0.00,,,0.00,0,Wunderground v.1.15,2013-03-23 22:32:00,
2013-03-24 00:42:00,43.5,35.1,29.99,ENE,58,2.0,2.0,72,0.00,,,0.00,0,Wunderground v.1.15,2013-03-23 22:42:00,
2013-03-24 00:52:00,43.4,35.0,29.99,ENE,59,1.0,1.0,72,0.00,,,0.00,0,Wunderground v.1.15,2013-03-23 22:52:00,
2013-03-24 01:02:00,43.2,34.8,29.99,ENE,59,1.0,1.0,72,0.00,,,0.00,0,Wunderground v.1.15,2013-03-23 23:02:00,
2013-03-24 01:12:00,43.1,35.0,29.99,ENE,59,0.0,1.0,73,0.00,,,0.00,0,Wunderground v.1.15,2013-03-23 23:12:00,
2013-03-24 01:22:00,42.8,34.7,29.99,ENE,59,0.0,0.0,73,0.00,,,0.00,0,Wunderground v.1.15,2013-03-23 23:22:00,
2013-03-24 01:42:00,42.1,35.1,29.99,ENE,59,0.0,1.0,76,0.00,,,0.00,0,Wunderground v.1.15,2013-03-23 23:42:00,
2013-03-24 01:52:00,42.1,35.1,30.00,ENE,59,1.0,1.0,76,0.00,,,0.00,0,Wunderground v.1.15,2013-03-23 23:52:00,
2013-03-24 02:02:00,41.9,34.9,30.00,ENE,59,0.0,0.0,76,0.00,,,0.00,0,Wunderground v.1.15,2013-03-24 00:02:00,
2013-03-24 02:12:00,41.8,35.4,29.99,ENE,61,0.0,0.0,78,0.00,,,0.00,0,Wunderground v.1.15,2013-03-24 00:12:00,
2013-03-24 02:22:00,41.9,35.2,30.00,ENE,61,0.0,0.0,77,0.00,,,0.00,0,Wunderground v.1.15,2013-03-24 00:22:00,
2013-03-24 02:32:00,42.0,35.0,30.00,ENE,61,0.0,0.0,76,0.00,,,0.00,0,Wunderground v.1.15,2013-03-24 00:32:00,
2013-03-24 02:42:00,42.2,35.2,30.00,ENE,62,0.0,0.0,76,0.00,,,0.00,0,Wunderground v.1.15,2013-03-24 00:42:00,
2013-03-24 02:52:00,43.1,35.4,30.00,WSW,240,1.0,1.0,74,0.00,,,0.00,0,Wunderground v.1.15,2013-03-24 00:52:00,
2013-03-24 03:02:00,43.5,35.8,30.00,SW,234,1.0,1.0,74,0.00,,,0.00,0,Wunderground v.1.15,2013-03-24 01:02:00,
2013-03-24 03:12:00,43.5,35.8,30.00,SW,227,0.0,0.0,74,0.00,,,0.00,0,Wunderground v.1.15,2013-03-24 01:12:00,
2013-03-24 03:22:00,43.3,35.9,30.00,SW,227,0.0,0.0,75,0.00,,,0.00,0,Wunderground v.1.15,2013-03-24 01:22:00,
2013-03-24 03:32:00,43.5,35.8,30.00,SW,227,1.0,1.0,74,0.00,,,0.00,0,Wunderground v.1.15,2013-03-24 01:32:00,
2013-03-24 03:42:00,43.6,35.9,30.00,SW,227,0.0,1.0,74,0.00,,,0.00,0,Wunderground v.1.15,2013-03-24 01:42:00,
2013-03-24 03:52:00,43.4,35.7,30.00,SW,227,1.0,1.0,74,0.00,,,0.00,0,Wunderground v.1.15,2013-03-24 01:52:00,
2013-03-24 04:02:00,43.0,35.6,30.00,SW,227,0.0,0.0,75,0.00,,,0.00,0,Wunderground v.1.15,2013-03-24 02:02:00,
2013-03-24 04:12:00,42.0,35.6,30.01,North,349,2.0,5.0,78,0.00,,,0.00,0,Wunderground v.1.15,2013-03-24 02:12:00,
2013-03-24 04:22:00,41.9,35.5,30.01,NNW,331,2.0,2.0,78,0.00,,,0.00,0,Wunderground v.1.15,2013-03-24 02:22:00,
2013-03-24 04:32:00,42.0,35.6,30.02,NNW,338,4.0,4.0,78,0.00,,,0.00,0,Wunderground v.1.15,2013-03-24 02:32:00,
2013-03-24 04:42:00,42.2,35.8,30.02,NNW,338,3.0,3.0,78,0.00,,,0.00,0,Wunderground v.1.15,2013-03-24 02:42:00,
2013-03-24 04:52:00,42.1,35.7,30.02,NNW,338,2.0,2.0,78,0.00,,,0.00,0,Wunderground v.1.15,2013-03-24 02:52:00,
2013-03-24 05:02:00,41.8,35.4,30.01,NNW,338,0.0,0.0,78,0.00,,,0.00,0,Wunderground v.1.15,2013-03-24 03:02:00,
2013-03-24 05:12:00,41.7,36.0,30.01,NNW,348,1.0,1.0,80,0.00,,,0.00,0,Wunderground v.1.15,2013-03-24 03:12:00,
2013-03-24 05:22:00,41.7,36.0,30.02,NNW,348,0.0,0.0,80,0.00,,,0.00,0,Wunderground v.1.15,2013-03-24 03:22:00,
2013-03-24 05:32:00,41.4,35.7,30.02,North,350,0.0,1.0,80,0.00,,,0.00,0,Wunderground v.1.15,2013-03-24 03:32:00,
2013-03-24 05:42:00,41.2,36.1,30.02,North,350,1.0,1.0,82,0.00,,,0.00,0,Wunderground v.1.15,2013-03-24 03:42:00,
2013-03-24 05:52:00,41.2,36.1,30.02,NE,44,2.0,2.0,82,0.00,,,0.00,0,Wunderground v.1.15,2013-03-24 03:52:00,
2013-03-24 06:12:00,41.2,36.4,30.03,NE,50,1.0,1.0,83,0.00,,,0.00,12,Wunderground v.1.15,2013-03-24 04:12:00,
2013-03-24 06:22:00,41.0,35.9,30.03,NE,55,1.0,2.0,82,0.00,,,0.00,21,Wunderground v.1.15,2013-03-24 04:22:00,
2013-03-24 06:32:00,40.8,36.0,30.03,NNE,30,2.0,3.0,83,0.00,,,0.00,25,Wunderground v.1.15,2013-03-24 04:32:00,
2013-03-24 06:52:00,41.4,36.6,30.04,North,355,3.0,3.0,83,0.00,,,0.00,58,Wunderground v.1.15,2013-03-24 04:52:00,
2013-03-24 07:02:00,41.8,37.0,30.04,North,11,3.0,3.0,83,0.00,,,0.00,84,Wunderground v.1.15,2013-03-24 05:02:00,
2013-03-24 07:12:00,42.3,37.5,30.04,North,11,1.0,1.0,83,0.00,,,0.00,148,Wunderground v.1.15,2013-03-24 05:12:00,
2013-03-24 07:22:00,43.1,38.0,30.05,NNE,25,2.0,2.0,82,0.00,,,0.00,104,Wunderground v.1.15,2013-03-24 05:22:00,
2013-03-24 07:32:00,43.3,37.9,30.05,NNE,31,2.0,2.0,81,0.00,,,0.00,135,Wunderground v.1.15,2013-03-24 05:32:00,
2013-03-24 07:42:00,43.8,38.0,30.05,NE,42,4.0,4.0,80,0.00,,,0.00,237,Wunderground v.1.15,2013-03-24 05:42:00,
2013-03-24 07:52:00,44.3,38.8,30.05,NNE,30,4.0,6.0,81,0.00,,,0.00,236,Wunderground v.1.15,2013-03-24 05:52:00,
2013-03-24 08:02:00,44.8,39.3,30.05,North,9,4.0,4.0,81,0.00,,,0.00,239,Wunderground v.1.15,2013-03-24 06:02:00,
2013-03-24 08:12:00,45.3,39.5,30.06,NNE,15,4.0,4.0,80,0.00,,,0.00,206,Wunderground v.1.15,2013-03-24 06:12:00,
2013-03-24 08:22:00,45.5,39.4,30.06,ENE,76,3.0,4.0,79,0.00,,,0.00,332,Wunderground v.1.15,2013-03-24 06:22:00,
2013-03-24 08:32:00,45.5,39.4,30.07,ENE,61,3.0,3.0,79,0.00,,,0.00,283,Wunderground v.1.15,2013-03-24 06:32:00,
2013-03-24 08:42:00,45.2,39.1,30.07,East,87,4.0,4.0,79,0.00,,,0.00,287,Wunderground v.1.15,2013-03-24 06:42:00,
2013-03-24 08:52:00,45.9,39.8,30.07,ENE,77,2.0,2.0,79,0.00,,,0.00,394,Wunderground v.1.15,2013-03-24 06:52:00,
2013-03-24 09:02:00,46.8,40.0,30.08,ENE,73,3.0,3.0,77,0.00,,,0.00,457,Wunderground v.1.15,2013-03-24 07:02:00,
2013-03-24 09:12:00,47.7,40.2,30.08,NE,55,3.0,4.0,75,0.00,,,0.00,483,Wunderground v.1.15,2013-03-24 07:12:00,
2013-03-24 09:22:00,48.8,40.5,30.08,East,86,3.0,5.0,73,0.00,,,0.00,559,Wunderground v.1.15,2013-03-24 07:22:00,
2013-03-24 09:32:00,49.2,40.9,30.08,ENE,60,4.0,4.0,73,0.00,,,0.00,608,Wunderground v.1.15,2013-03-24 07:32:00,
2013-03-24 09:42:00,49.1,40.5,30.09,East,92,3.0,3.0,72,0.00,,,0.00,540,Wunderground v.1.15,2013-03-24 07:42:00,
2013-03-24 10:12:00,49.8,40.0,30.08,South,169,7.0,10.0,69,0.00,,,0.00,603,Wunderground v.1.15,2013-03-24 08:12:00,
2013-03-24 10:22:00,50.0,40.2,30.08,SSW,193,6.0,6.0,69,0.00,,,0.00,619,Wunderground v.1.15,2013-03-24 08:22:00,
2013-03-24 10:32:00,50.5,40.7,30.09,SSE,156,5.0,5.0,69,0.00,,,0.00,621,Wunderground v.1.15,2013-03-24 08:32:00,
2013-03-24 10:42:00,50.6,40.0,30.08,South,175,5.0,9.0,67,0.00,,,0.00,617,Wunderground v.1.15,2013-03-24 08:42:00,
2013-03-24 10:52:00,49.9,40.1,30.08,South,175,7.0,7.0,69,0.00,,,0.00,649,Wunderground v.1.15,2013-03-24 08:52:00,
2013-03-24 11:22:00,51.3,39.5,30.07,SSE,161,7.0,7.0,64,0.00,,,0.00,701,Wunderground v.1.15,2013-03-24 09:22:00,
2013-03-24 11:32:00,52.2,40.0,30.07,SSW,196,5.0,5.0,63,0.00,,,0.00,724,Wunderground v.1.15,2013-03-24 09:32:00,
2013-03-24 11:52:00,52.1,39.9,30.07,ESE,108,4.0,4.0,63,0.00,,,0.00,733,Wunderground v.1.15,2013-03-24 09:52:00,
2013-03-24 12:02:00,52.6,39.1,30.07,South,184,5.0,5.0,60,0.00,,,0.00,710,Wunderground v.1.15,2013-03-24 10:02:00,
2013-03-24 12:12:00,53.3,39.8,30.06,SSE,160,4.0,6.0,60,0.00,,,0.00,745,Wunderground v.1.15,2013-03-24 10:12:00,
2013-03-24 12:22:00,53.8,38.5,30.06,WSW,238,4.0,4.0,56,0.00,,,0.00,754,Wunderground v.1.15,2013-03-24 10:22:00,
2013-03-24 12:32:00,53.9,39.5,30.07,SSW,210,4.0,4.0,58,0.00,,,0.00,659,Wunderground v.1.15,2013-03-24 10:32:00,
2013-03-24 12:42:00,53.4,39.9,30.07,SSE,155,4.0,8.0,60,0.00,,,0.00,759,Wunderground v.1.15,2013-03-24 10:42:00,
2013-03-24 12:52:00,52.5,39.4,30.07,WNW,290,6.0,6.0,61,0.00,,,0.00,652,Wunderground v.1.15,2013-03-24 10:52:00,
2013-03-24 13:02:00,53.6,38.3,30.06,SSW,204,5.0,5.0,56,0.00,,,0.00,766,Wunderground v.1.15,2013-03-24 11:02:00,
2013-03-24 13:12:00,54.0,38.6,30.06,SSE,161,5.0,5.0,56,0.00,,,0.00,675,Wunderground v.1.15,2013-03-24 11:12:00,
2013-03-24 13:22:00,54.8,38.5,30.06,South,187,4.0,5.0,54,0.00,,,0.00,359,Wunderground v.1.15,2013-03-24 11:22:00,
2013-03-24 13:42:00,53.3,36.1,30.05,SSW,192,6.0,8.0,52,0.00,,,0.00,306,Wunderground v.1.15,2013-03-24 11:42:00,
2013-03-24 13:52:00,53.7,36.5,30.06,South,175,7.0,7.0,52,0.00,,,0.00,652,Wunderground v.1.15,2013-03-24 11:52:00,
2013-03-24 14:02:00,54.8,37.5,30.05,SE,140,5.0,5.0,52,0.00,,,0.00,656,Wunderground v.1.15,2013-03-24 12:02:00,
2013-03-24 14:12:00,55.7,36.8,30.05,SSE,163,4.0,7.0,49,0.00,,,0.00,503,Wunderground v.1.15,2013-03-24 12:12:00,
2013-03-24 14:22:00,54.6,35.8,30.04,South,173,6.0,6.0,49,0.00,,,0.00,323,Wunderground v.1.15,2013-03-24 12:22:00,
2013-03-24 14:32:00,54.8,36.5,30.04,SSE,159,5.0,5.0,50,0.00,,,0.00,234,Wunderground v.1.15,2013-03-24 12:32:00,
2013-03-24 14:42:00,54.4,35.6,30.04,South,173,5.0,7.0,49,0.00,,,0.00,248,Wunderground v.1.15,2013-03-24 12:42:00,
2013-03-24 14:52:00,54.5,36.2,30.04,South,176,4.0,5.0,50,0.00,,,0.00,264,Wunderground v.1.15,2013-03-24 12:52:00,
2013-03-24 15:02:00,54.4,35.6,30.04,South,169,4.0,4.0,49,0.00,,,0.00,216,Wunderground v.1.15,2013-03-24 13:02:00,
2013-03-24 15:12:00,54.9,36.1,30.04,SSW,205,2.0,2.0,49,0.00,,,0.00,387,Wunderground v.1.15,2013-03-24 13:12:00,
2013-03-24 15:22:00,56.2,36.2,30.04,SSE,159,2.0,2.0,47,0.00,,,0.00,545,Wunderground v.1.15,2013-03-24 13:22:00,
2013-03-24 15:42:00,58.1,35.7,30.03,SW,225,2.0,2.0,43,0.00,,,0.00,283,Wunderground v.1.15,2013-03-24 13:42:00,
2013-03-24 15:52:00,58.7,35.7,30.02,WSW,243,2.0,2.0,42,0.00,,,0.00,397,Wunderground v.1.15,2013-03-24 13:52:00,
2013-03-24 16:02:00,58.8,35.7,30.02,SSW,202,2.0,2.0,42,0.00,,,0.00,332,Wunderground v.1.15,2013-03-24 14:02:00,
2013-03-24 16:12:00,59.6,33.9,30.01,SW,220,2.0,2.0,38,0.00,,,0.00,346,Wunderground v.1.15,2013-03-24 14:12:00,
2013-03-24 16:22:00,60.3,32.5,30.01,SSW,199,2.0,3.0,35,0.00,,,0.00,329,Wunderground v.1.15,2013-03-24 14:22:00,
2013-03-24 16:42:00,60.2,31.0,30.01,SSW,192,2.0,2.0,33,0.00,,,0.00,204,Wunderground v.1.15,2013-03-24 14:42:00,
2013-03-24 16:52:00,59.8,33.5,30.01,SSW,194,3.0,4.0,37,0.00,,,0.00,206,Wunderground v.1.15,2013-03-24 14:52:00,
2013-03-24 17:02:00,59.0,34.7,30.01,South,187,2.0,3.0,40,0.00,,,0.00,114,Wunderground v.1.15,2013-03-24 15:02:00,
2013-03-24 17:12:00,57.8,34.8,30.01,SSW,200,1.0,1.0,42,0.00,,,0.00,148,Wunderground v.1.15,2013-03-24 15:12:00,
2013-03-24 17:22:00,58.0,35.6,30.01,ENE,74,0.0,1.0,43,0.00,,,0.00,121,Wunderground v.1.15,2013-03-24 15:22:00,
2013-03-24 17:32:00,57.5,36.9,30.01,East,81,1.0,3.0,46,0.00,,,0.00,63,Wunderground v.1.15,2013-03-24 15:32:00,
2013-03-24 17:42:00,55.3,39.4,30.01,NNE,32,5.0,5.0,55,0.00,,,0.00,37,Wunderground v.1.15,2013-03-24 15:42:00,
2013-03-24 17:52:00,54.2,39.7,30.01,NNW,348,4.0,6.0,58,0.00,,,0.00,32,Wunderground v.1.15,2013-03-24 15:52:00,
2013-03-24 18:02:00,53.4,40.7,30.01,NNE,24,4.0,5.0,62,0.00,,,0.00,11,Wunderground v.1.15,2013-03-24 16:02:00,
2013-03-24 18:12:00,52.5,40.7,30.01,NNE,15,6.0,7.0,64,0.00,,,0.00,0,Wunderground v.1.15,2013-03-24 16:12:00,
2013-03-24 18:22:00,52.4,40.6,30.01,NNE,14,5.0,5.0,64,0.00,,,0.00,0,Wunderground v.1.15,2013-03-24 16:22:00,
2013-03-24 18:32:00,52.3,40.9,30.01,NNE,15,5.0,5.0,65,0.00,,,0.00,0,Wunderground v.1.15,2013-03-24 16:32:00,
2013-03-24 18:42:00,52.3,40.5,30.01,North,9,5.0,5.0,64,0.00,,,0.00,0,Wunderground v.1.15,2013-03-24 16:42:00,
2013-03-24 18:52:00,52.3,41.7,30.01,North,360,4.0,4.0,67,0.00,,,0.00,0,Wunderground v.1.15,2013-03-24 16:52:00,
2013-03-24 19:02:00,52.1,41.1,30.01,NE,34,3.0,3.0,66,0.00,,,0.00,0,Wunderground v.1.15,2013-03-24 17:02:00,
2013-03-24 19:12:00,51.8,40.4,30.02,NNE,22,3.0,3.0,65,0.00,,,0.00,0,Wunderground v.1.15,2013-03-24 17:12:00,
2013-03-24 19:22:00,51.5,40.5,30.02,North,355,3.0,3.0,66,0.00,,,0.00,0,Wunderground v.1.15,2013-03-24 17:22:00,
2013-03-24 19:32:00,51.4,40.0,30.02,North,5,3.0,3.0,65,0.00,,,0.00,0,Wunderground v.1.15,2013-03-24 17:32:00,
2013-03-24 19:42:00,51.3,39.9,30.03,North,5,2.0,3.0,65,0.00,,,0.00,0,Wunderground v.1.15,2013-03-24 17:42:00,
2013-03-24 20:02:00,51.1,39.7,30.03,NNE,23,3.0,3.0,65,0.00,,,0.00,0,Wunderground v.1.15,2013-03-24 18:02:00,
2013-03-24 20:12:00,50.9,39.5,30.03,North,355,3.0,3.0,65,0.00,,,0.00,0,Wunderground v.1.15,2013-03-24 18:12:00,
2013-03-24 20:22:00,50.9,39.1,30.03,NE,34,3.0,3.0,64,0.00,,,0.00,0,Wunderground v.1.15,2013-03-24 18:22:00,
2013-03-24 20:32:00,50.7,39.4,30.03,NNE,26,3.0,5.0,65,0.00,,,0.00,0,Wunderground v.1.15,2013-03-24 18:32:00,
2013-03-24 20:42:00,50.6,38.9,30.03,NE,40,8.0,8.0,64,0.00,,,0.00,0,Wunderground v.1.15,2013-03-24 18:42:00,
2013-03-24 20:52:00,50.6,38.9,30.03,NE,49,8.0,8.0,64,0.00,,,0.00,0,Wunderground v.1.15,2013-03-24 18:52:00,
2013-03-24 21:12:00,50.4,39.1,30.03,NNE,28,6.0,6.0,65,0.00,,,0.00,0,Wunderground v.1.15,2013-03-24 19:12:00,
2013-03-24 21:22:00,50.4,39.1,30.03,ENE,57,5.0,5.0,65,0.00,,,0.00,0,Wunderground v.1.15,2013-03-24 19:22:00,
2013-03-24 21:32:00,50.4,39.1,30.03,NE,42,5.0,6.0,65,0.00,,,0.00,0,Wunderground v.1.15,2013-03-24 19:32:00,
2013-03-24 21:42:00,50.5,39.2,30.02,NE,40,5.0,5.0,65,0.00,,,0.00,0,Wunderground v.1.15,2013-03-24 19:42:00,
2013-03-24 21:52:00,50.6,39.3,30.02,NE,52,5.0,6.0,65,0.00,,,0.00,0,Wunderground v.1.15,2013-03-24 19:52:00,
2013-03-24 22:02:00,50.9,39.1,30.02,NE,53,5.0,5.0,64,0.00,,,0.00,0,Wunderground v.1.15,2013-03-24 20:02:00,
2013-03-24 22:12:00,50.8,39.1,30.02,NE,38,3.0,3.0,64,0.00,,,0.00,0,Wunderground v.1.15,2013-03-24 20:12:00,
2013-03-24 22:22:00,50.7,39.0,30.02,ENE,67,2.0,2.0,64,0.00,,,0.00,0,Wunderground v.1.15,2013-03-24 20:22:00,
2013-03-24 22:32:00,50.8,39.1,30.02,East,80,2.0,8.0,64,0.00,,,0.00,0,Wunderground v.1.15,2013-03-24 20:32:00,
2013-03-24 22:42:00,50.9,39.1,30.02,ENE,71,5.0,5.0,64,0.00,,,0.00,0,Wunderground v.1.15,2013-03-24 20:42:00,
2013-03-24 22:52:00,50.8,39.1,30.02,NE,54,4.0,6.0,64,0.00,,,0.00,0,Wunderground v.1.15,2013-03-24 20:52:00,
2013-03-24 23:02:00,50.9,39.1,30.02,NE,38,5.0,5.0,64,0.00,,,0.00,0,Wunderground v.1.15,2013-03-24 21:02:00,
2013-03-24 23:12:00,51.0,39.2,30.02,NNE,30,4.0,5.0,64,0.00,,,0.00,0,Wunderground v.1.15,2013-03-24 21:12:00,
2013-03-24 23:22:00,50.9,39.1,30.02,NNE,21,4.0,4.0,64,0.00,,,0.00,0,Wunderground v.1.15,2013-03-24 21:22:00,
2013-03-24 23:32:00,51.0,38.8,30.02,ENE,69,4.0,4.0,63,0.00,,,0.00,0,Wunderground v.1.15,2013-03-24 21:32:00,
2013-03-24 23:42:00,51.1,38.5,30.02,NE,39,2.0,3.0,62,0.00,,,0.00,0,Wunderground v.1.15,2013-03-24 21:42:00,
2013-03-24 23:52:00,50.9,38.7,30.02,NNW,348,4.0,6.0,63,0.00,,,0.00,0,Wunderground v.1.15,2013-03-24 21:52:00,